• In Hungary
  • List of Countries
  • For 7 days
  • Water Temperature
  • Satellite Maps
  • Weather Map
  • News
  • Weather Widgets
  • user-avatar
    Login

    Hourly Weather Krostoszowice

    Today, 22 September, Saturday

    Time Temperature Precipitation Wind Pressure Humidity
    00:00 +19°C° 0.3 mm 4 mps 739 mmHg 71%
    01:00 +18°C° 0 mm 4 mps 739 mmHg 78%
    02:00 +17°C° 1.7 mm 4 mps 740 mmHg 80%
    03:00 +15°C° 1.7 mm 4 mps 741 mmHg 82%
    04:00 +13°C° 1.7 mm 4 mps 742 mmHg 85%
    05:00 +13°C° 0.7 mm 3 mps 742 mmHg 84%
    06:00 +14°C° 0.7 mm 2 mps 743 mmHg 83%
    07:00 +13°C° 0 mm 2 mps 744 mmHg 80%
    08:00 +14°C° 0.1 mm 2 mps 744 mmHg 74%
    09:00 +15°C° 0.1 mm 2 mps 744 mmHg 68%
    10:00 +16°C° 0.1 mm 3 mps 744 mmHg 61%
    11:00 +17°C° 0 mm 3 mps 744 mmHg 56%
    12:00 +18°C° 0 mm 4 mps 744 mmHg 51%
    13:00 +19°C° 0 mm 4 mps 744 mmHg 45%
    14:00 +18°C° 0 mm 4 mps 743 mmHg 46%
    15:00 +18°C° 0 mm 4 mps 743 mmHg 47%
    16:00 +18°C° 0 mm 3 mps 743 mmHg 49%
    17:00 +17°C° 0 mm 3 mps 743 mmHg 52%
    18:00 +16°C° 0 mm 3 mps 743 mmHg 55%
    19:00 +15°C° 0 mm 2 mps 743 mmHg 58%
    20:00 +15°C° 0 mm 2 mps 743 mmHg 58%
    21:00 +15°C° 0 mm 2 mps 744 mmHg 59%
    22:00 +14°C° 0 mm 3 mps 744 mmHg 59%
    23:00 +13°C° 0.1 mm 3 mps 744 mmHg 62%

    Tomorrow, 23 September, Sunday

    Time Temperature Precipitation Wind Pressure Humidity
    00:00 +13°C° 0.1 mm 3 mps 744 mmHg 65%
    01:00 +13°C° 0.1 mm 3 mps 743 mmHg 67%
    02:00 +12°C° 0 mm 3 mps 743 mmHg 69%
    03:00 +12°C° 0 mm 3 mps 743 mmHg 70%
    04:00 +12°C° 0 mm 3 mps 743 mmHg 71%
    05:00 +12°C° 0 mm 3 mps 743 mmHg 71%
    06:00 +12°C° 0 mm 3 mps 742 mmHg 71%
    07:00 +12°C° 0 mm 3 mps 742 mmHg 71%
    08:00 +13°C° 0 mm 4 mps 742 mmHg 69%
    09:00 +14°C° 0 mm 4 mps 742 mmHg 66%
    10:00 +14°C° 0 mm 4 mps 742 mmHg 64%
    11:00 +14°C° 0.1 mm 4 mps 742 mmHg 66%
    12:00 +14°C° 0.1 mm 4 mps 741 mmHg 69%
    13:00 +14°C° 0.1 mm 5 mps 741 mmHg 71%
    14:00 +14°C° 0.4 mm 4 mps 740 mmHg 75%
    15:00 +14°C° 0.4 mm 4 mps 739 mmHg 78%
    16:00 +13°C° 0.4 mm 4 mps 738 mmHg 82%
    17:00 +13°C° 0.2 mm 5 mps 737 mmHg 79%
    18:00 +14°C° 0.2 mm 6 mps 736 mmHg 77%
    19:00 +14°C° 0.2 mm 6 mps 735 mmHg 75%
    20:00 +15°C° 0.1 mm 7 mps 734 mmHg 75%
    21:00 +15°C° 0.1 mm 7 mps 734 mmHg 76%
    22:00 +16°C° 0.1 mm 8 mps 733 mmHg 76%
    23:00 +16°C° 2.2 mm 7 mps 733 mmHg 80%

    Day after tomorrow, 24 September, Monday

    Time Temperature Precipitation Wind Pressure Humidity
    00:00 +16°C° 2.2 mm 7 mps 732 mmHg 84%
    01:00 +16°C° 2.2 mm 6 mps 732 mmHg 89%
    02:00 +14°C° 1 mm 7 mps 734 mmHg 88%
    03:00 +11°C° 1 mm 8 mps 735 mmHg 87%
    04:00 +10°C° 1 mm 8 mps 737 mmHg 86%
    05:00 +9°C° 0.1 mm 8 mps 738 mmHg 85%
    06:00 +9°C° 0.1 mm 7 mps 739 mmHg 84%
    07:00 +8°C° 0.1 mm 7 mps 740 mmHg 83%
    08:00 +9°C° 0.1 mm 7 mps 741 mmHg 78%
    09:00 +10°C° 0.1 mm 8 mps 742 mmHg 72%
    10:00 +10°C° 0.1 mm 8 mps 743 mmHg 67%
    11:00 +11°C° 0.2 mm 8 mps 744 mmHg 63%
    12:00 +11°C° 0.2 mm 8 mps 744 mmHg 58%
    13:00 +12°C° 0.2 mm 8 mps 745 mmHg 54%
    14:00 +11°C° 0.2 mm 8 mps 745 mmHg 54%
    15:00 +11°C° 0.2 mm 8 mps 745 mmHg 55%
    16:00 +10°C° 0.2 mm 7 mps 746 mmHg 55%
    17:00 +9°C° 0 mm 6 mps 746 mmHg 58%
    18:00 +8°C° 0 mm 5 mps 747 mmHg 61%
    19:00 +7°C° 0 mm 4 mps 747 mmHg 63%
    20:00 +7°C° 0 mm 4 mps 748 mmHg 66%
    21:00 +7°C° 0 mm 4 mps 748 mmHg 68%
    22:00 +6°C° 0 mm 4 mps 749 mmHg 70%
    23:00 +6°C° 0 mm 4 mps 749 mmHg 72%

    25 September, Tuesday

    Time Temperature Precipitation Wind Pressure Humidity
    00:00 +6°C° 0 mm 4 mps 749 mmHg 73%
    01:00 +5°C° 0 mm 4 mps 750 mmHg 74%
    02:00 +5°C° 0 mm 4 mps 750 mmHg 76%
    03:00 +5°C° 0 mm 4 mps 751 mmHg 78%
    04:00 +4°C° 0 mm 4 mps 751 mmHg 79%
    05:00 +4°C° 0 mm 4 mps 752 mmHg 80%
    06:00 +5°C° 0 mm 4 mps 752 mmHg 80%
    07:00 +5°C° 0 mm 4 mps 753 mmHg 80%
    08:00 +6°C° 0 mm 4 mps 753 mmHg 74%
    09:00 +7°C° 0 mm 4 mps 754 mmHg 67%
    10:00 +9°C° 0 mm 5 mps 754 mmHg 60%
    11:00 +9°C° 0.1 mm 5 mps 754 mmHg 57%
    12:00 +10°C° 0.1 mm 5 mps 755 mmHg 53%
    13:00 +10°C° 0.1 mm 5 mps 755 mmHg 49%
    14:00 +10°C° 0 mm 5 mps 755 mmHg 49%
    15:00 +10°C° 0 mm 5 mps 755 mmHg 49%
    16:00 +11°C° 0 mm 4 mps 755 mmHg 49%
    17:00 +10°C° 0 mm 4 mps 755 mmHg 53%
    18:00 +9°C° 0 mm 3 mps 756 mmHg 57%
    19:00 +8°C° 0 mm 2 mps 756 mmHg 61%
    20:00 +7°C° 0 mm 2 mps 757 mmHg 62%
    21:00 +7°C° 0 mm 1 mps 757 mmHg 64%
    22:00 +7°C° 0 mm 1 mps 757 mmHg 66%
    23:00 +6°C° 0 mm 1 mps 758 mmHg 67%

    26 September, Wednesday

    Time Temperature Precipitation Wind Pressure Humidity
    00:00 +6°C° 0 mm 1 mps 758 mmHg 68%
    01:00 +6°C° 0 mm 1 mps 758 mmHg 68%
    02:00 +6°C° 0 mm 1 mps 758 mmHg 69%
    03:00 +5°C° 0 mm 1 mps 757 mmHg 69%
    04:00 +5°C° 0 mm 1 mps 757 mmHg 69%
    05:00 +5°C° 0 mm 2 mps 757 mmHg 68%
    06:00 +5°C° 0 mm 2 mps 757 mmHg 66%
    07:00 +6°C° 0 mm 2 mps 757 mmHg 64%
    08:00 +8°C° 0 mm 3 mps 757 mmHg 57%
    09:00 +10°C° 0 mm 3 mps 757 mmHg 50%
    10:00 +12°C° 0 mm 4 mps 756 mmHg 42%
    11:00 +13°C° 0 mm 5 mps 756 mmHg 42%
    12:00 +14°C° 0 mm 5 mps 755 mmHg 41%
    13:00 +14°C° 0 mm 6 mps 754 mmHg 40%
    14:00 +14°C° 0 mm 5 mps 754 mmHg 42%
    15:00 +14°C° 0 mm 5 mps 753 mmHg 44%
    16:00 +14°C° 0 mm 5 mps 753 mmHg 46%
    17:00 +12°C° 0 mm 5 mps 753 mmHg 50%
    18:00 +11°C° 0 mm 4 mps 752 mmHg 53%
    19:00 +10°C° 0 mm 4 mps 752 mmHg 57%
    20:00 +10°C° 0 mm 4 mps 752 mmHg 56%
    21:00 +8°C° 0 mm 4 mps 752 mmHg 56%
    22:00 +8°C° 0 mm 4 mps 752 mmHg 55%
    23:00 +8°C° 0 mm 4 mps 752 mmHg 56%

    27 September, Thursday

    Time Temperature Precipitation Wind Pressure Humidity
    00:00 +8°C° 0 mm 3 mps 751 mmHg 56%
    01:00 +8°C° 0 mm 3 mps 751 mmHg 57%
    02:00 +8°C° 0 mm 3 mps 751 mmHg 57%
    03:00 +7°C° 0 mm 3 mps 750 mmHg 58%
    04:00 +7°C° 0 mm 3 mps 750 mmHg 59%
    05:00 +8°C° 0 mm 3 mps 750 mmHg 59%
    06:00 +8°C° 0 mm 3 mps 750 mmHg 59%
    07:00 +8°C° 0 mm 3 mps 750 mmHg 58%
    08:00 +11°C° 0 mm 3 mps 749 mmHg 54%
    09:00 +13°C° 0 mm 3 mps 749 mmHg 50%
    10:00 +16°C° 0 mm 3 mps 749 mmHg 46%
    11:00 +17°C° 0 mm 4 mps 748 mmHg 44%
    12:00 +19°C° 0 mm 4 mps 748 mmHg 42%
    13:00 +20°C° 0 mm 4 mps 747 mmHg 39%
    14:00 +20°C° 0 mm 4 mps 747 mmHg 42%
    15:00 +19°C° 0 mm 3 mps 747 mmHg 44%
    16:00 +19°C° 0 mm 3 mps 746 mmHg 47%
    17:00 +18°C° 0 mm 3 mps 746 mmHg 51%
    18:00 +16°C° 0 mm 3 mps 746 mmHg 56%
    19:00 +14°C° 0 mm 2 mps 746 mmHg 61%
    20:00 +14°C° 0 mm 2 mps 746 mmHg 61%
    21:00 +14°C° 0 mm 2 mps 746 mmHg 61%
    22:00 +13°C° 0 mm 2 mps 746 mmHg 60%
    23:00 +13°C° 0 mm 2 mps 746 mmHg 61%
    Show more